[[[{"header":{"parameterUnit":"kt","parameterCategory":2,"dx":1,"dy":1,"la1":30.253999710083008,"la2":30.299108505249023,"lo1":-89.0895004272461,"lo2":-89.04439544677734,"nx":28,"ny":28,"refTime":"2022-10-11T21:00:00:Z","depth":0,"parameterNumber":1,"parameterNumberName":"U-component_of_WINDS"},"data":[-4.1163,-4.1289,-4.1337,-4.1505,-4.1577,-4.17,-4.176,-4.1843,-4.1921,-4.2076,-4.2174,-4.2237,-4.2336,-4.2466,-4.2576,-4.2602,-4.2645,-4.2656,-4.2684,-4.2591,-4.2581,-4.2572,-4.2544,-4.2664,-4.2665,-4.2774,-4.2775,-4.2775,-4.1093,-4.1164,-4.1266,-4.1398,-4.1487,-4.1506,-4.1613,-4.1686,-4.1797,-4.1894,-4.1993,-4.2134,-4.2252,-4.2349,-4.2471,-4.2534,-4.255,-4.2564,-4.256,-4.2575,-4.2477,-4.2447,-4.2549,-4.2549,-4.2549,-4.2549,-4.2548,-4.2548,-4.0979,-4.1053,-4.116,-4.1272,-4.1351,-4.1439,-4.1519,-4.1593,-4.1695,-4.1826,-4.1864,-4.1991,-4.2099,-4.227,-4.2339,-4.2441,-4.2435,-4.2465,-4.2472,-4.2479,-4.2479,-4.2317,-4.2464,-4.2464,-4.2464,-4.2464,-4.2463,0,-4.091,-4.0945,-4.1045,-4.1161,-4.1245,-4.134,-4.1434,-4.1485,-4.1576,-4.1656,-4.1778,-4.1856,-4.2011,-4.2131,-4.2256,-4.2323,-4.2351,-4.2359,-4.238,-4.2363,-4.2332,-4.2351,-4.2189,-4.2354,-4.2353,-4.2353,-4.2353,-4.2352,-4.0799,-4.0879,-4.1014,-4.1078,-4.1141,-4.1245,-4.1317,-4.139,-4.1463,-4.1592,-4.1655,-4.1776,-4.1876,-4.2063,-4.215,-4.2266,-4.2281,-4.2339,-4.2299,-4.228,-4.2283,-4.2277,-4.2286,-4.2344,-4.2345,-4.2346,-4.2347,0,-4.0732,-4.0809,-4.0948,-4.1074,-4.1108,-4.1189,-4.1297,-4.1375,-4.1438,-4.1555,-4.1586,-4.1686,-4.1804,-4.1882,-4.2032,-4.2069,-4.2208,-4.222,-4.2172,-4.2179,-4.2238,-4.2232,-4.2418,-4.2447,-4.2323,-4.2324,-4.2325,0,-4.0667,-4.077,-4.0878,-4.0955,-4.1073,-4.1143,-4.1258,-4.1323,-4.1415,-4.1508,-4.1551,-4.1637,-4.1723,-4.1821,-4.1876,-4.2003,-4.2031,-4.2067,-4.2081,-4.2063,-4.2059,-4.2103,-4.2097,-4.2107,-4.2106,-4.2105,-4.2104,0,-4.0554,-4.0732,-4.0858,-4.091,-4.1054,-4.1112,-4.1175,-4.1278,-4.1347,-4.145,-4.1496,-4.1612,-4.1675,-4.1764,-4.1833,-4.1803,-4.199,-4.1963,-4.2027,-4.2026,-4.2063,-4.206,-4.2207,-4.2103,-4.2102,-4.2102,-4.2102,0,-4.0513,-4.0613,-4.0783,-4.0904,-4.0948,-4.1031,-4.1148,-4.1237,-4.1342,-4.1382,-4.1463,-4.1501,-4.1617,-4.1585,-4.1748,-4.1689,-4.1749,-4.1795,-4.1801,-4.1815,-4.1776,-4.1848,-4.198,-4.1997,-4.183,-4.1828,-4.1826,0,-4.0363,-4.0554,-4.0615,-4.0775,-4.0874,-4.0915,-4.101,-4.1101,-4.1161,-4.1255,-4.1322,-4.1429,-4.1421,-4.1465,-4.1535,-4.1609,-4.1685,-4.1601,-4.1738,-4.1742,-4.1708,-4.183,-4.183,-4.1943,-4.1798,-4.1801,-4.1803,0,-4.0255,-4.0426,-4.045,-4.0514,-4.0644,-4.0727,-4.0834,-4.0955,-4.1014,-4.1111,-4.1204,-4.1356,-4.1357,-4.1428,-4.147,-4.154,-4.1636,-4.1531,-4.1534,-4.1547,-4.179,-4.1789,-4.1808,-4.1649,-4.1653,-4.1656,-4.1781,0,-4.0177,-4.0281,-4.035,-4.0485,-4.0561,-4.0665,-4.0744,-4.0814,-4.0847,-4.0907,-4.1044,-4.1139,-4.1262,-4.1303,-4.1335,-4.1468,-4.1458,-4.1456,-4.1429,-4.1509,-4.1552,-4.157,-4.1359,-4.1358,-4.1358,-4.1358,0,0,-4.0014,-4.0165,-4.0226,-4.0332,-4.0399,-4.0439,-4.0543,-4.0614,-4.0756,-4.0802,-4.0788,-4.1014,-4.1091,-4.125,-4.1281,-4.1331,-4.1362,-4.133,-4.1471,-4.1483,-4.1494,-4.1539,-4.1556,-4.1357,-4.1357,-4.1357,-4.1357,0,-4.0001,-4.0076,-4.0177,-4.0253,-4.0367,-4.0425,-4.0449,-4.0569,-4.0612,-4.0746,-4.0777,-4.0869,-4.1046,-4.1125,-4.1187,-4.1314,-4.1332,-4.1345,-4.1386,-4.1465,-4.1477,-4.1489,-4.1535,-4.1551,-4.1357,-4.1357,-4.1357,0,-3.9909,-3.9996,-4.0053,-4.0207,-4.0281,-4.0382,-4.0373,-4.0479,-4.0554,-4.0592,-4.0724,-4.0787,-4.0897,-4.1036,-4.1101,-4.109,-4.13,-4.1247,-4.1251,-4.126,-4.134,-4.1355,-4.1368,-4.1192,-4.1191,-4.1191,0,0,-3.9887,-3.9984,-4.0099,-4.0209,-4.0254,-4.0341,-4.0402,-4.044,-4.0537,-4.0576,-4.0656,-4.0751,-4.0855,-4.0922,-4.1024,-4.1165,-4.1194,-4.1223,-4.1231,-4.1237,-4.1249,-4.1331,-4.1345,-4.1187,-4.1187,-4.1187,0,0,-3.9877,-4.0014,-4.0029,-4.0166,-4.0257,-4.0378,-4.0444,-4.0465,-4.0564,-4.056,-4.063,-4.0658,-4.0789,-4.085,-4.0795,-4.1016,-4.0988,-4.1003,-4.0971,-4.0982,-4.099,-4.0972,-4.0799,0,0,0,0,0,-3.9902,-3.9997,-4.0009,-4.0043,-4.0237,-4.0372,-4.0397,-4.0456,-4.0435,-4.0486,-4.0557,-4.0572,-4.0835,-4.0788,-4.0822,-4.0882,-4.1143,-4.1151,-4.1158,-4.1152,-4.1162,-4.1171,0,0,0,0,0,0,-3.9916,-3.9958,-4.0007,-4.013,-4.0175,-4.0369,-4.0347,-4.0365,-4.0431,-4.0432,-4.0557,-4.0576,-4.0629,-4.0775,-4.0804,-4.086,-4.0789,-4.1146,-4.1153,-4.1159,-4.1155,-4.1164,-4.1171,0,0,0,0,0,-3.9928,-3.9962,-4.0256,-4.013,-4.0168,-4.0269,-4.0343,-4.0359,-4.0411,-4.052,-4.0539,-4.0449,-4.0629,-4.0658,-4.0793,-4.0845,-4.0769,-4.078,-4.1151,-4.1156,-4.116,-4.1159,0,0,0,0,0,0,-3.9936,-3.9977,-4.0265,-4.0279,-4.0097,-4.026,-4.0287,-4.0353,-4.0496,-4.0515,-4.0415,-4.0414,-4.063,-4.0652,-4.0675,-4.0836,-4.0752,-4.0763,-4.077,-4.1155,-4.1159,-4.1162,0,0,0,0,0,0,-3.996,-3.9989,-4.0273,-4.0229,-4.0238,-4.025,-4.0275,-4.0397,-4.0497,-4.0383,-4.0387,-4.0413,-4.0597,-4.0649,-4.0666,-4.0855,-4.074,-4.075,-4.0758,-4.0762,-4.1158,-4.1161,0,0,0,0,0,0,-3.9973,-3.9998,-4.0225,-4.0233,-4.0241,-4.0402,-4.036,-4.0555,-4.0458,-4.0376,-4.0451,-4.0448,-4.0593,-4.0612,-4.0661,-4.0842,-4.0852,-4.074,-4.0747,-4.0752,-4.0756,0,0,0,0,0,0,0,-3.9984,-3.9801,-4.0182,-4.0236,-4.0243,-4.0408,-4.0412,-4.0416,-4.0458,-4.0455,-4.0452,-4.0449,-4.0679,-4.0691,-4.0703,-4.0831,0,0,-4.0739,-4.0744,0,0,0,0,0,0,0,0,-3.9792,-3.9798,-4.0183,-4.0186,-4.0189,-4.0409,-4.0412,-4.0415,-4.0457,-4.0455,-4.0453,-4.045,-4.0682,-4.0692,-4.0701,0,0,0,0,0,0,0,0,0,0,0,0,0,0,0,-4.0183,-4.0186,0,-4.041,-4.0412,-4.0415,-4.0457,-4.0455,-4.0453,-4.0451,-4.0685,-4.0693,-4.07,0,0,0,0,0,0,0,0,0,0,0,0,0,0,0,0,0,0,0,0,0,0,0,0,0,0,0,0,0,0,0,0,0,0,0,0,0,0,0,0,0,0,0,0,0,0,0,0,0,0,0,0,0,0,0,0,0,0,0,0,0,0,0,0,0,0,0,0,0]}],[{"header":{"parameterUnit":"kt","parameterCategory":2,"dx":1,"dy":1,"la1":30.253999710083008,"la2":30.299108505249023,"lo1":-89.0895004272461,"lo2":-89.04439544677734,"nx":28,"ny":28,"refTime":"2022-10-11T21:00:00:Z","depth":0,"parameterNumber":2,"parameterNumberName":"V-component_of_WINDS"},"data":[5.3192,5.3302,5.3351,5.35,5.3569,5.368,5.3735,5.3812,5.3885,5.4024,5.4113,5.4173,5.4266,5.4384,5.4483,5.4508,5.4547,5.4553,5.4581,5.4511,5.4504,5.4498,5.4476,5.456,5.456,5.4648,5.4649,5.4649,5.3146,5.3216,5.3307,5.3429,5.3509,5.3535,5.3633,5.3699,5.3797,5.3887,5.3975,5.4101,5.4206,5.4297,5.4407,5.4462,5.448,5.4488,5.4485,5.45,5.4427,5.4402,5.4472,5.4472,5.4472,5.4472,5.4472,5.4472,5.3076,5.3139,5.324,5.334,5.3414,5.3495,5.3564,5.3635,5.3725,5.3843,5.3882,5.3993,5.4093,5.4246,5.4308,5.4398,5.4396,5.442,5.4427,5.4433,5.4434,5.4309,5.4418,5.4418,5.4418,5.4418,5.4418,0,5.304,5.3076,5.3165,5.327,5.3345,5.343,5.3516,5.3559,5.365,5.372,5.3826,5.3895,5.4031,5.4137,5.4248,5.4308,5.4341,5.4347,5.4365,5.4349,5.4324,5.4342,5.4224,5.4343,5.4343,5.4342,5.4342,5.4342,5.2975,5.304,5.3167,5.3223,5.3281,5.337,5.3433,5.3507,5.3571,5.3688,5.3739,5.3845,5.3933,5.4094,5.4174,5.4276,5.4292,5.4334,5.4307,5.4292,5.4298,5.4294,5.4303,5.4337,5.4338,5.4338,5.4339,0,5.2935,5.301,5.3126,5.3244,5.3275,5.334,5.3442,5.3507,5.3567,5.3665,5.3692,5.3786,5.3888,5.3962,5.4091,5.4127,5.4242,5.4253,5.421,5.4217,5.4265,5.426,5.4398,5.4422,5.4332,5.4333,5.4333,0,5.2909,5.2991,5.31,5.3162,5.3257,5.3328,5.342,5.348,5.3564,5.3641,5.3688,5.376,5.3842,5.3926,5.3978,5.4083,5.4106,5.4141,5.4154,5.4138,5.4134,5.4173,5.4169,5.4176,5.4175,5.4175,5.4174,0,5.284,5.299,5.3093,5.3139,5.327,5.3317,5.3374,5.3466,5.3526,5.3615,5.3656,5.3753,5.3808,5.3884,5.395,5.393,5.4079,5.4065,5.4115,5.4113,5.4144,5.4141,5.4244,5.4173,5.4173,5.4173,5.4172,0,5.283,5.2918,5.3052,5.3164,5.32,5.3266,5.3368,5.3442,5.3535,5.3572,5.3642,5.3681,5.3776,5.3758,5.3891,5.3847,5.3898,5.3939,5.3943,5.3957,5.3935,5.3986,5.4075,5.4088,5.3971,5.3969,5.3968,0,5.2732,5.2886,5.2947,5.3073,5.3154,5.3202,5.3277,5.3357,5.3412,5.3491,5.3551,5.3638,5.3639,5.3677,5.3733,5.3799,5.3856,5.3793,5.3908,5.3912,5.3885,5.3968,5.3963,5.4047,5.3947,5.3949,5.395,0,5.2664,5.282,5.2837,5.2894,5.3009,5.3075,5.316,5.3262,5.3311,5.3392,5.3468,5.3589,5.3597,5.3656,5.3696,5.375,5.382,5.375,5.3753,5.3763,5.394,5.3937,5.3951,5.3836,5.3838,5.384,5.3934,0,5.264,5.2724,5.2774,5.2891,5.2953,5.3033,5.3108,5.3165,5.3198,5.3253,5.3362,5.3442,5.3543,5.3575,5.3606,5.3706,5.3701,5.3705,5.3693,5.3744,5.3778,5.3791,5.3638,5.3638,5.3638,5.3638,0,0,5.2529,5.2649,5.271,5.2793,5.285,5.2895,5.2975,5.3035,5.3153,5.3192,5.3185,5.3367,5.3431,5.3555,5.3577,5.3615,5.3642,5.3618,5.3718,5.3727,5.3735,5.3769,5.3782,5.3638,5.3638,5.3638,5.3638,0,5.2535,5.2599,5.2675,5.274,5.2837,5.2891,5.2909,5.3013,5.3051,5.3155,5.319,5.3263,5.3402,5.3469,5.352,5.3606,5.3628,5.363,5.3653,5.3716,5.3724,5.3732,5.3767,5.3778,5.3638,5.3638,5.3638,0,5.2484,5.256,5.2603,5.273,5.2793,5.2873,5.2879,5.2961,5.3021,5.3063,5.3165,5.3219,5.331,5.3415,5.3464,5.346,5.3612,5.3574,5.3576,5.3583,5.3647,5.3657,5.3666,5.3547,5.3546,5.3546,0,0,5.2479,5.2555,5.2657,5.2736,5.2774,5.2853,5.2901,5.2938,5.3019,5.3051,5.312,5.3198,5.3281,5.3333,5.3414,5.3517,5.3543,5.356,5.3564,5.3567,5.3576,5.3641,5.3651,5.3544,5.3544,5.3543,0,0,5.2476,5.2598,5.2616,5.2716,5.2793,5.2898,5.2944,5.2969,5.3048,5.3047,5.3112,5.3135,5.3234,5.3284,5.3245,5.3411,5.3396,5.3407,5.3374,5.3381,5.3385,5.3371,5.326,0,0,0,0,0,5.2519,5.2583,5.2598,5.2626,5.2783,5.289,5.291,5.2966,5.2956,5.2993,5.3054,5.3073,5.3278,5.3245,5.3271,5.3313,5.3514,5.3519,5.3524,5.3507,5.3513,5.3518,0,0,0,0,0,0,5.253,5.2563,5.2597,5.2703,5.2739,5.2888,5.2884,5.2901,5.2954,5.2956,5.306,5.3076,5.3125,5.3235,5.3258,5.3297,5.3253,5.3516,5.3521,5.3525,5.3509,5.3514,5.3518,0,0,0,0,0,5.2539,5.2566,5.2803,5.2703,5.2734,5.2824,5.2882,5.2896,5.2938,5.3032,5.3048,5.2975,5.3124,5.3147,5.3249,5.3285,5.3237,5.3246,5.3519,5.3523,5.3526,5.3511,0,0,0,0,0,0,5.2546,5.258,5.2811,5.2823,5.2682,5.2817,5.284,5.2892,5.3011,5.3028,5.2949,5.295,5.3125,5.3143,5.316,5.3278,5.3225,5.3233,5.3238,5.3522,5.3524,5.3527,0,0,0,0,0,0,5.2566,5.259,5.2817,5.2787,5.2796,5.281,5.283,5.2923,5.3012,5.2922,5.2926,5.2948,5.3098,5.314,5.3153,5.3296,5.3215,5.3223,5.3229,5.3232,5.3524,5.3526,0,0,0,0,0,0,5.2577,5.2598,5.2784,5.2791,5.2799,5.2934,5.2893,5.305,5.2987,5.2916,5.2983,5.2981,5.3094,5.311,5.3149,5.3285,5.3293,5.3215,5.3221,5.3225,5.3227,0,0,0,0,0,0,0,5.2586,5.2436,5.2742,5.2795,5.2801,5.293,5.2933,5.2937,5.2987,5.2985,5.2983,5.2982,5.3169,5.3178,5.3187,5.3276,0,0,5.3214,5.3218,0,0,0,0,0,0,0,0,5.2429,5.2435,5.2742,5.2745,5.2747,5.2931,5.2933,5.2936,5.2986,5.2985,5.2984,5.2982,5.3171,5.3178,5.3186,0,0,0,0,0,0,0,0,0,0,0,0,0,0,0,5.2743,5.2745,0,5.2931,5.2933,5.2935,5.2986,5.2985,5.2984,5.2983,5.3173,5.3179,5.3185,0,0,0,0,0,0,0,0,0,0,0,0,0,0,0,0,0,0,0,0,0,0,0,0,0,0,0,0,0,0,0,0,0,0,0,0,0,0,0,0,0,0,0,0,0,0,0,0,0,0,0,0,0,0,0,0,0,0,0,0,0,0,0,0,0,0,0,0,0]}]]]